SCP
0 0 0 0 0 0 0 0 0 0 0 0 0 0 -0 -0 -0 -0 -0 0 0 0 0 0 0 0 0 0 0 0 0 0 0 0 0 0 0 0
0 0 0 0 0 0 0 0 0 0 0 0 0 0 -0 -0 -0 -0 -0 -0 -0 0 0 0 0 0 0 0 0 0 0 0 0 0 0 0 0 0
0 0 0 0 0 0 0 0 0 0 0 0 0 -0 -0 -0 -0 -0 -0 -0 -0 -0 0 0 0 0 0 0 0 0 0 0 0 0 0 0 0 0
0 0 0 0 0 0 0 0 0 0 0 0 0 -0 -0 -0 -0 -0 -0 -0 -0 -0 -0 -0 0 0 0 0 0 0 0 0 0 0 0 0 0 0
0 0 0 0 0 0 0 0 0 0 0 0 0 0 -0 -0 -0 -0 -0 -0 -0 -0 -0 0 -0 -0 0 0 0 0 0 0 0 0 0 0 0 0
0 0 0 0 0 0 0 0 0 0 0 0 0 -0 -0 -0 -0 -0 -0 -0 -0 -0 -0 -0 -0 -0 -0 -0 0 0 0 0 0 0 0 0 0 0
0 0 0 0 0 0 0 0 0 0 0 0 0 0 -0 -0 -0 -0 -0 -0 -0 -0 -0 -0 -0 -0 -0 0 -0 0 0 0 0 0 0 0 0 0
0 0 0 0 0 0 0 0 0 0 0 0 0 0 0 0 -0 -0 -0 -0 -0 -0 -0 -0 -0 -0 -0 -0 0 -0 0 0 0 0 0 0 0 0
0 0 0 0 0 0 0 0 0 0 0 0 0 0 0 -0 -0 0 0 0 0 0 -0 -0 -0 -0 -0 -0 -0 0 0 0 0 0 0 0 0 0
0 0 0 0 0 0 0 0 0 0 0 0 0 0 0 0 0 0 -0 -0 0 0 -0 -0 -0 -0 -0 0 0 0 0 0 0 0 0 0 0 0
0 0 0 0 0 0 0 0 0 0 0 0 0 0 0 0 0 0 -0 -0 -0 0 -0 -0 -0 -0 -0 -0 -0 0 0 0 0 0 0 0 0 0
0 0 0 0 0 0 0 0 0 0 0 0 0 0 0 0 0 0 0 0 0 -0 0 -0 -0 -0 -0 -0 -0 -0 -0 0 0 0 0 0 0 0
0 0 0 0 0 0 0 0 0 0 0 0 0 0 0 0 0 0 0 0 0 0 0 0 -0 -0 -0 -0 -0 -0 -0 0 0 0 0 0 0 0
0 0 0 0 0 0 0 0 0 0 0 0 0 0 0 0 0 0 0 0 0 0 0 0 0 -0 -0 -0 -0 -0 -0 -0 0 0 0 0 0 0
0 0 0 0 0 0 0 0 0 0 0 0 0 0 0 0 0 0 0 0 0 0 0 0 0 0 0 -0 0 -0 -0 -0 0 0 0 0 0 0
0 0 0 0 0 0 0 0 0 0 0 0 0 0 0 0 0 0 0 0 0 0 0 0 0 0 0 0 0 -0 -0 -0 -0 -0 -0 0 0 0
0 0 0 0 0 0 0 0 0 0 0 0 0 0 0 0 0 0 0 0 0 -0 0 0 0 0 0 0 0 0 -0 0 0 0 -0 0 0 0
0 0 0 0 0 0 0 0 0 0 0 0 0 0 0 0 0 0 0 0 0 0 0 0 0 0 0 0 -0 0 0 0 0 0 0 -0 0 0
0 0 0 0 0 0 0 0 0 0 0 0 0 0 0 0 0 0 0 0 0 0 0 0 0 -0 0 0 0 0 0 0 0 0 0 0 -0 0
0 0 0 0 0 0 0 0 0 0 0 0 0 0 0 0 0 0 0 -0 0 0 0 0 0 0 0 0 0 0 -0 -0 0 0 0 0 0 0
0 0 0 0 0 0 0 0 0 0 0 0 0 0 0 0 0 0 0 0 -0 -0 0 0 0 0 0 -0 -0 0 0 -0 0 0 0 0 0 0
0 0 0 0 0 0 0 0 0 0 0 0 0 0 0 0 0 0 0 0 0 -0 0 0 0 0 0 -0 0 -0 0 0 -0 0 0 0 0 0
0 0 0 0 0 0 0 0 0 0 0 0 0 0 0 0 0 0 0 0 0 0 -0 0 0 0 0 0 0 0 -0 0 0 0 0 0 0 0
Wind_Speed_500mb
12 14 15 17 19 21 23 29 28 26 55 52 66 77 79 81 84 84 82 75 68 68 70 72 73 68 63 61 69 65 67 76 77 75 85 89 102 104
12 16 18 20 23 25 27 29 28 30 33 61 72 83 86 88 87 91 93 94 89 77 71 71 74 75 74 73 74 68 70 69 73 74 75 78 94 101
19 23 26 28 31 33 36 37 37 40 55 76 78 85 88 92 94 95 97 100 103 101 96 85 81 81 79 84 92 83 73 66 65 70 70 85 92 82
25 28 31 34 37 39 42 43 47 48 57 80 83 88 91 95 100 101 100 101 104 105 105 106 102 95 86 82 83 87 89 77 71 73 80 70 65 76
29 32 36 38 40 42 44 46 49 54 59 70 83 84 89 92 100 101 106 107 105 109 108 105 107 103 101 93 84 81 86 91 75 69 70 72 80 84
28 31 35 38 43 46 49 52 55 59 64 70 79 85 88 92 96 108 120 113 118 114 112 104 103 103 109 109 103 95 80 78 79 69 66 66 71 77
28 31 34 36 40 43 45 50 53 57 62 69 75 80 85 91 94 100 108 118 119 101 111 100 119 111 109 107 111 104 92 81 83 79 68 71 75 78
30 31 35 39 43 44 44 44 48 53 55 60 67 74 79 82 85 89 97 105 117 100 117 130 106 114 105 104 102 101 93 87 84 89 79 67 67 70
32 33 34 37 41 46 45 43 41 42 47 53 63 67 74 72 76 83 85 89 101 113 108 128 91 98 104 108 97 98 93 86 86 83 90 72 67 68
30 32 37 40 43 48 50 48 47 48 49 52 54 60 63 65 65 68 74 84 93 98 84 106 101 102 98 102 99 94 92 91 84 82 85 88 72 68
31 34 38 41 44 43 51 52 55 56 54 52 51 50 51 53 57 67 74 81 95 101 78 76 92 103 95 103 94 95 88 89 75 70 71 88 76 67
29 31 34 38 41 46 52 55 58 61 65 65 61 56 53 54 54 57 65 72 79 84 83 90 95 91 89 87 77 87 89 84 76 73 70 72 79 67
33 33 34 37 41 46 50 50 53 58 59 60 62 62 61 59 57 56 58 62 71 73 68 67 76 88 81 84 108 103 95 83 77 83 88 69 77 75
32 34 36 40 42 44 46 47 48 51 55 59 63 66 69 69 69 65 60 59 58 59 65 65 70 76 83 92 86 90 83 81 78 82 76 69 66 73
31 33 35 38 38 38 41 44 48 52 57 62 65 67 68 69 68 70 66 64 60 58 63 66 72 76 75 67 67 75 83 72 68 78 79 70 70 72
30 32 36 36 36 37 38 43 47 50 56 60 64 64 66 69 71 73 77 81 79 72 62 68 74 74 74 48 47 78 72 63 65 57 62 77 66 68
31 33 33 35 38 39 40 44 48 51 55 58 62 67 69 71 73 74 76 78 81 89 86 80 76 77 68 41 46 72 79 72 59 54 53 59 59 60
35 38 38 40 43 47 50 51 52 55 57 59 60 64 68 71 75 75 75 79 84 87 89 86 90 94 88 79 48 74 80 80 71 56 42 45 52 53
33 36 38 40 42 45 48 51 54 54 55 57 59 61 65 66 71 74 78 80 84 85 84 84 84 85 92 85 66 64 76 78 76 61 41 30 47 51
34 35 36 38 41 43 46 49 50 52 53 54 56 58 60 64 67 69 73 79 83 86 86 83 79 76 74 72 71 74 55 64 69 71 55 19 17 36
31 34 36 39 40 42 44 46 48 50 52 52 53 55 57 60 60 60 66 70 77 83 88 87 81 64 62 60 70 76 66 47 50 63 56 35 12 12
32 33 35 39 41 42 44 45 45 46 48 50 51 51 52 54 53 55 61 69 73 76 80 80 78 74 64 69 70 71 69 64 46 50 50 42 30 10
33 34 35 38 41 43 44 45 44 43 44 48 50 49 49 50 47 46 53 60 65 71 77 83 81 77 74 68 65 67 67 62 67 60 67 78 61 21
Wind_Direction_500mb
33 23 11 7 358 351 348 344 343 321 315 318 321 325 328 328 327 326 322 318 312 307 304 299 290 285 282 288 295 290 286 285 281 286 274 269 257 257
17 5 359 357 353 347 346 343 337 323 298 307 323 328 329 330 329 328 326 324 320 314 308 301 297 288 285 279 276 281 280 283 281 272 275 277 262 257
3 358 353 350 346 342 341 340 340 333 319 319 324 331 331 330 329 326 325 323 321 320 317 310 303 297 296 289 283 278 271 276 279 274 271 270 268 261
357 351 346 345 342 344 346 345 340 336 326 323 329 331 332 333 330 328 325 321 319 319 317 315 313 309 301 294 289 284 274 269 275 282 265 264 267 258
352 349 347 345 340 344 342 338 336 334 332 328 327 332 332 332 328 326 324 322 319 319 316 313 314 312 310 306 296 286 279 270 270 276 268 264 266 261
351 346 343 342 342 343 342 340 340 338 337 333 330 333 334 334 330 328 324 324 322 320 317 319 315 311 310 309 303 296 286 280 267 264 274 265 266 264
345 345 345 344 341 344 345 343 342 339 336 334 334 335 337 336 335 331 326 326 325 330 326 317 315 314 312 309 307 303 296 280 269 261 260 262 264 262
346 347 344 343 341 341 340 341 341 340 337 337 336 337 335 335 333 331 328 327 321 325 321 317 317 314 312 311 308 305 299 290 277 266 261 259 261 265
343 343 343 340 338 337 337 337 335 336 337 339 336 337 332 335 330 327 327 323 318 319 322 314 315 306 306 307 303 305 299 294 287 271 265 258 256 262
346 346 346 343 345 344 337 339 339 340 341 339 336 333 331 331 329 327 327 321 317 318 327 316 321 313 309 301 302 305 302 298 288 280 264 253 253 260
348 345 343 340 344 350 339 339 340 340 339 338 335 331 330 332 336 332 336 334 329 322 338 323 320 325 318 309 302 292 292 299 292 289 279 254 246 256
345 340 339 344 347 343 343 342 340 341 339 336 334 333 334 335 341 344 342 340 336 331 334 330 328 330 319 312 306 299 292 285 285 282 280 258 243 247
345 345 346 351 348 344 342 343 345 339 336 338 340 341 342 341 340 342 345 343 337 329 340 333 322 324 321 313 309 309 302 288 281 281 278 272 249 241
348 350 350 349 345 341 339 341 342 338 339 343 346 349 349 348 347 343 341 338 341 339 347 339 334 335 326 318 316 326 320 299 282 279 284 281 268 245
347 348 347 344 342 341 343 346 347 348 349 349 351 354 354 351 349 344 344 340 338 346 351 350 346 343 338 324 319 326 324 308 295 274 276 290 272 255
341 344 346 342 342 345 346 347 352 355 356 354 353 353 352 353 354 354 351 351 347 342 349 355 352 352 348 340 331 337 337 332 310 288 288 277 283 258
343 342 331 335 342 348 355 356 356 357 359 358 355 354 355 355 356 357 357 356 357 354 350 351 353 356 359 4 345 347 349 343 334 315 288 274 271 262
340 336 339 344 348 351 353 356 357 358 358 357 357 355 355 356 355 358 359 360 358 357 357 357 357 354 359 2 9 349 356 355 350 338 306 274 268 263
331 336 342 346 349 351 352 354 355 356 354 355 355 355 355 357 357 360 1 1 358 359 1 2 1 3 354 341 351 6 353 358 3 356 343 292 263 255
332 336 341 345 346 348 349 350 351 350 351 352 353 354 356 357 358 2 3 3 1 359 1 4 4 3 354 336 326 351 5 4 9 6 355 0 278 255
332 335 338 340 341 343 345 347 348 348 347 349 351 352 354 356 358 3 3 4 4 3 3 3 3 1 360 1 1 2 6 11 27 20 8 349 352 200
330 332 334 335 337 339 341 343 345 344 344 346 348 349 351 355 358 1 5 3 4 4 2 1 4 4 6 11 3 3 5 11 33 48 55 24 357 336
325 330 332 332 333 335 337 339 341 343 344 343 345 347 349 352 355 359 4 3 2 2 2 2 4 7 10 8 8 11 9 16 23 38 59 68 68 60
Wind_Speed_850mb
12 14 15 17 19 21 23 29 28 26 55 52 66 77 79 81 84 84 82 75 68 68 70 72 73 68 63 61 69 65 67 76 77 75 85 89 102 104
12 16 18 20 23 25 27 29 28 30 33 61 72 83 86 88 87 91 93 94 89 77 71 71 74 75 74 73 74 68 70 69 73 74 75 78 94 101
19 23 26 28 31 33 36 37 37 40 55 76 78 85 88 92 94 95 97 100 103 101 96 85 81 81 79 84 92 83 73 66 65 70 70 85 92 82
25 28 31 34 37 39 42 43 47 48 57 80 83 88 91 95 100 101 100 101 104 105 105 106 102 95 86 82 83 87 89 77 71 73 80 70 65 76
29 32 36 38 40 42 44 46 49 54 59 70 83 84 89 92 100 101 106 107 105 109 108 105 107 103 101 93 84 81 86 91 75 69 70 72 80 84
28 31 35 38 43 46 49 52 55 59 64 70 79 85 88 92 96 108 120 113 118 114 112 104 103 103 109 109 103 95 80 78 79 69 66 66 71 77
28 31 34 36 40 43 45 50 53 57 62 69 75 80 85 91 94 100 108 118 119 101 111 100 119 111 109 107 111 104 92 81 83 79 68 71 75 78
30 31 35 39 43 44 44 44 48 53 55 60 67 74 79 82 85 89 97 105 117 100 117 130 106 114 105 104 102 101 93 87 84 89 79 67 67 70
32 33 34 37 41 46 45 43 41 42 47 53 63 67 74 72 76 83 85 89 101 113 108 128 91 98 104 108 97 98 93 86 86 83 90 72 67 68
30 32 37 40 43 48 50 48 47 48 49 52 54 60 63 65 65 68 74 84 93 98 84 106 101 102 98 102 99 94 92 91 84 82 85 88 72 68
31 34 38 41 44 43 51 52 55 56 54 52 51 50 51 53 57 67 74 81 95 101 78 76 92 103 95 103 94 95 88 89 75 70 71 88 76 67
29 31 34 38 41 46 52 55 58 61 65 65 61 56 53 54 54 57 65 72 79 84 83 90 95 91 89 87 77 87 89 84 76 73 70 72 79 67
33 33 34 37 41 46 50 50 53 58 59 60 62 62 61 59 57 56 58 62 71 73 68 67 76 88 81 84 108 103 95 83 77 83 88 69 77 75
32 34 36 40 42 44 46 47 48 51 55 59 63 66 69 69 69 65 60 59 58 59 65 65 70 76 83 92 86 90 83 81 78 82 76 69 66 73
31 33 35 38 38 38 41 44 48 52 57 62 65 67 68 69 68 70 66 64 60 58 63 66 72 76 75 67 67 75 83 72 68 78 79 70 70 72
30 32 36 36 36 37 38 43 47 50 56 60 64 64 66 69 71 73 77 81 79 72 62 68 74 74 74 48 47 78 72 63 65 57 62 77 66 68
31 33 33 35 38 39 40 44 48 51 55 58 62 67 69 71 73 74 76 78 81 89 86 80 76 77 68 41 46 72 79 72 59 54 53 59 59 60
35 38 38 40 43 47 50 51 52 55 57 59 60 64 68 71 75 75 75 79 84 87 89 86 90 94 88 79 48 74 80 80 71 56 42 45 52 53
33 36 38 40 42 45 48 51 54 54 55 57 59 61 65 66 71 74 78 80 84 85 84 84 84 85 92 85 66 64 76 78 76 61 41 30 47 51
34 35 36 38 41 43 46 49 50 52 53 54 56 58 60 64 67 69 73 79 83 86 86 83 79 76 74 72 71 74 55 64 69 71 55 19 17 36
31 34 36 39 40 42 44 46 48 50 52 52 53 55 57 60 60 60 66 70 77 83 88 87 81 64 62 60 70 76 66 47 50 63 56 35 12 12
32 33 35 39 41 42 44 45 45 46 48 50 51 51 52 54 53 55 61 69 73 76 80 80 78 74 64 69 70 71 69 64 46 50 50 42 30 10
33 34 35 38 41 43 44 45 44 43 44 48 50 49 49 50 47 46 53 60 65 71 77 83 81 77 74 68 65 67 67 62 67 60 67 78 61 21
Wind_Direction_850mb
33 23 11 7 358 351 348 344 343 321 315 318 321 325 328 328 327 326 322 318 312 307 304 299 290 285 282 288 295 290 286 285 281 286 274 269 257 257
17 5 359 357 353 347 346 343 337 323 298 307 323 328 329 330 329 328 326 324 320 314 308 301 297 288 285 279 276 281 280 283 281 272 275 277 262 257
3 358 353 350 346 342 341 340 340 333 319 319 324 331 331 330 329 326 325 323 321 320 317 310 303 297 296 289 283 278 271 276 279 274 271 270 268 261
357 351 346 345 342 344 346 345 340 336 326 323 329 331 332 333 330 328 325 321 319 319 317 315 313 309 301 294 289 284 274 269 275 282 265 264 267 258
352 349 347 345 340 344 342 338 336 334 332 328 327 332 332 332 328 326 324 322 319 319 316 313 314 312 310 306 296 286 279 270 270 276 268 264 266 261
351 346 343 342 342 343 342 340 340 338 337 333 330 333 334 334 330 328 324 324 322 320 317 319 315 311 310 309 303 296 286 280 267 264 274 265 266 264
345 345 345 344 341 344 345 343 342 339 336 334 334 335 337 336 335 331 326 326 325 330 326 317 315 314 312 309 307 303 296 280 269 261 260 262 264 262
346 347 344 343 341 341 340 341 341 340 337 337 336 337 335 335 333 331 328 327 321 325 321 317 317 314 312 311 308 305 299 290 277 266 261 259 261 265
343 343 343 340 338 337 337 337 335 336 337 339 336 337 332 335 330 327 327 323 318 319 322 314 315 306 306 307 303 305 299 294 287 271 265 258 256 262
346 346 346 343 345 344 337 339 339 340 341 339 336 333 331 331 329 327 327 321 317 318 327 316 321 313 309 301 302 305 302 298 288 280 264 253 253 260
348 345 343 340 344 350 339 339 340 340 339 338 335 331 330 332 336 332 336 334 329 322 338 323 320 325 318 309 302 292 292 299 292 289 279 254 246 256
345 340 339 344 347 343 343 342 340 341 339 336 334 333 334 335 341 344 342 340 336 331 334 330 328 330 319 312 306 299 292 285 285 282 280 258 243 247
345 345 346 351 348 344 342 343 345 339 336 338 340 341 342 341 340 342 345 343 337 329 340 333 322 324 321 313 309 309 302 288 281 281 278 272 249 241
348 350 350 349 345 341 339 341 342 338 339 343 346 349 349 348 347 343 341 338 341 339 347 339 334 335 326 318 316 326 320 299 282 279 284 281 268 245
347 348 347 344 342 341 343 346 347 348 349 349 351 354 354 351 349 344 344 340 338 346 351 350 346 343 338 324 319 326 324 308 295 274 276 290 272 255
341 344 346 342 342 345 346 347 352 355 356 354 353 353 352 353 354 354 351 351 347 342 349 355 352 352 348 340 331 337 337 332 310 288 288 277 283 258
343 342 331 335 342 348 355 356 356 357 359 358 355 354 355 355 356 357 357 356 357 354 350 351 353 356 359 4 345 347 349 343 334 315 288 274 271 262
340 336 339 344 348 351 353 356 357 358 358 357 357 355 355 356 355 358 359 360 358 357 357 357 357 354 359 2 9 349 356 355 350 338 306 274 268 263
331 336 342 346 349 351 352 354 355 356 354 355 355 355 355 357 357 360 1 1 358 359 1 2 1 3 354 341 351 6 353 358 3 356 343 292 263 255
332 336 341 345 346 348 349 350 351 350 351 352 353 354 356 357 358 2 3 3 1 359 1 4 4 3 354 336 326 351 5 4 9 6 355 0 278 255
332 335 338 340 341 343 345 347 348 348 347 349 351 352 354 356 358 3 3 4 4 3 3 3 3 1 360 1 1 2 6 11 27 20 8 349 352 200
330 332 334 335 337 339 341 343 345 344 344 346 348 349 351 355 358 1 5 3 4 4 2 1 4 4 6 11 3 3 5 11 33 48 55 24 357 336
325 330 332 332 333 335 337 339 341 343 344 343 345 347 349 352 355 359 4 3 2 2 2 2 4 7 10 8 8 11 9 16 23 38 59 68 68 60